Athens, GA

7:01 PM EDT on September 19, 2019 (GMT -0400)
Athens / Epps

Weather History for KAHN - August, 2019

Change the Weather History Date:

Sunday, August 18, 2019

  Actual Average Record
Temperature  
Mean Temperature 84 °F 80 °F  
Max Temperature 97 °F 90 °F 103 °F (1995)
Min Temperature 71 °F 69 °F 62 °F (1979)
Cooling Degree Days 19 15  
Month to date cooling degree days 309 272  
Year to date cooling degree days 1626 1374  
Since 1 June cooling degree days 1210 1134  
Growing Degree Days 34 (Base 50)    
Moisture  
Dew Point 70 °F    
Average Humidity 68    
Maximum Humidity 93    
Minimum Humidity 42    
Precipitation  
Precipitation 0.00 in 0.12 in 3.24 in (1939)
Month to date precipitation 5.51 2.15  
Year to date precipitation 29.95 29.91  
Sea Level Pressure  
Sea Level Pressure 30.00 in    
Wind  
Wind Speed 3 mph (SSE)    
Max Wind Speed 9 mph    
Max Gust Speed 15 mph    
Visibility 10 miles    
Events      
T = Trace of Precipitation, MM = Missing Value Source: NWS Daily Summary

Daily Weather History Graph

Daily Weather History Graph

Search for Another Location

Airport or City:

Astronomy

Aug. 18, 2019 Rise Set
Actual Time 6:56 AM EDT 8:16 PM EDT
Civil Twilight 6:30 AM EDT 8:43 PM EDT
Nautical Twilight 5:59 AM EDT 9:14 PM EDT
Astronomical Twilight 5:26 AM EDT 9:46 PM EDT
Moon 10:18 PM EDT (8/18) 9:35 AM EDT (8/18)
Length of Visible Light 14h 12m
Length of Day
13h 19m
Waning Gibbous, 91% of the Moon is Illuminated
Aug 18
Waning Gibbous
Aug 23
Last Quarter
Aug 30
New
Sep 5
First Quarter
Sep 14
Full

Hourly Weather History & Observations

Time (EDT) Temp. Heat Index Dew Point Humidity Pressure Visibility Wind Dir Wind Speed Gust Speed Precip Events Conditions
12:51 AM 77.0 °F - 71.1 °F 82% 30.00 in 10.0 mi East 6.9 mph - N/A   Clear
1:51 AM 75.9 °F - 71.1 °F 85% 30.00 in 10.0 mi ESE 5.8 mph - N/A   Clear
2:51 AM 75.0 °F - 71.1 °F 87% 29.99 in 10.0 mi South 3.5 mph - N/A   Clear
3:51 AM 73.9 °F - 70.0 °F 87% 29.98 in 10.0 mi South 3.5 mph - N/A   Clear
4:51 AM 73.0 °F - 70.0 °F 90% 29.98 in 10.0 mi West 3.5 mph - N/A   Clear
5:51 AM 72.0 °F - 69.1 °F 91% 30.00 in 10.0 mi East 3.5 mph - N/A   Clear
6:51 AM 71.1 °F - 69.1 °F 93% 30.01 in 8.0 mi Calm Calm - N/A   Clear
7:51 AM 73.9 °F - 71.1 °F 91% 30.01 in 9.0 mi Calm Calm - N/A   Clear
8:51 AM 78.1 °F - 71.1 °F 79% 30.03 in 10.0 mi Calm Calm - N/A   Clear
9:51 AM 81.0 °F 84.9 °F 71.1 °F 72% 30.03 in 10.0 mi Calm Calm - N/A   Clear
10:51 AM 84.9 °F 90.1 °F 71.1 °F 63% 30.04 in 10.0 mi Calm Calm - N/A   Clear
11:51 AM 88.0 °F 94.7 °F 72.0 °F 59% 30.04 in 10.0 mi SW 4.6 mph - N/A   Clear
12:51 PM 91.9 °F 99.5 °F 72.0 °F 52% 30.05 in 10.0 mi Calm Calm - N/A   Clear
1:51 PM 91.9 °F 97.4 °F 70.0 °F 48% 30.03 in 10.0 mi NNE 3.5 mph - N/A   Clear
2:51 PM 93.0 °F 100.1 °F 71.1 °F 49% 30.01 in 10.0 mi Variable 5.8 mph - N/A   Clear
3:51 PM 95.0 °F 99.5 °F 68.0 °F 41% 29.98 in 10.0 mi WSW 3.5 mph - N/A   Clear
4:51 PM 93.9 °F 99.1 °F 69.1 °F 44% 29.96 in 10.0 mi Variable 3.5 mph - N/A   Clear
5:51 PM 88.0 °F 92.9 °F 70.0 °F 55% 29.97 in 10.0 mi Variable 5.8 mph - N/A   Scattered Clouds
6:51 PM 87.1 °F 88.9 °F 64.9 °F 48% 29.97 in 10.0 mi South 6.9 mph - N/A   Partly Cloudy
7:51 PM 82.9 °F 86.5 °F 69.1 °F 63% 29.99 in 10.0 mi Calm Calm - N/A   Clear
8:51 PM 80.1 °F 82.9 °F 69.1 °F 69% 30.00 in 10.0 mi Calm Calm - N/A   Partly Cloudy
9:51 PM 77.0 °F - 71.1 °F 82% 30.01 in 10.0 mi ESE 3.5 mph - N/A   Partly Cloudy
10:51 PM 79.0 °F - 70.0 °F 74% 30.01 in 10.0 mi SSE 3.5 mph - N/A   Clear
11:51 PM 78.1 °F - 71.1 °F 79% 30.01 in 10.0 mi South 3.5 mph - N/A   Clear